TimeEDT,TemperatureF,Dew PointF,Humidity,Sea Level PressureIn,VisibilityMPH,Wind Direction,Wind SpeedMPH,Gust SpeedMPH,PrecipitationIn,Events,Conditions,WindDirDegrees,DateUTC
12:15 AM,66.2,62.6,88,30.05,5.0,Calm,Calm,-,N/A,,Overcast,0,2013-09-11 04:15:00
12:35 AM,66.2,62.6,88,30.05,5.0,WSW,4.6,-,N/A,,Overcast,240,2013-09-11 04:35:00
12:55 AM,69.8,64.4,83,30.04,5.0,SW,8.1,-,N/A,,Overcast,230,2013-09-11 04:55:00
1:15 AM,69.8,66.2,88,30.04,5.0,WSW,8.1,-,N/A,,Overcast,240,2013-09-11 05:15:00
1:35 AM,69.8,66.2,88,30.03,5.0,SW,8.1,-,N/A,,Overcast,230,2013-09-11 05:35:00
1:55 AM,69.8,66.2,88,30.03,5.0,SW,10.4,-,N/A,,Mostly Cloudy,230,2013-09-11 05:55:00
2:15 AM,69.8,66.2,88,30.02,5.0,SW,12.7,-,N/A,,Partly Cloudy,230,2013-09-11 06:15:00
2:35 AM,69.8,66.2,88,30.03,4.0,SW,11.5,17.3,N/A,,Partly Cloudy,230,2013-09-11 06:35:00
2:55 AM,69.8,66.2,88,30.03,5.0,SW,8.1,-,N/A,,Mostly Cloudy,220,2013-09-11 06:55:00
3:15 AM,69.8,66.2,88,30.03,5.0,SSW,6.9,-,N/A,,Overcast,210,2013-09-11 07:15:00
3:35 AM,69.8,66.2,88,30.02,4.0,SW,6.9,-,N/A,,Overcast,220,2013-09-11 07:35:00
3:55 AM,69.8,66.2,88,30.02,3.0,SSW,8.1,-,N/A,,Overcast,210,2013-09-11 07:55:00
4:15 AM,69.8,66.2,88,30.02,3.0,SW,9.2,-,N/A,,Overcast,230,2013-09-11 08:15:00
4:35 AM,69.8,66.2,88,30.02,3.0,SW,9.2,-,N/A,,Overcast,230,2013-09-11 08:35:00
4:55 AM,69.8,66.2,88,30.03,3.0,WSW,10.4,-,N/A,,Overcast,240,2013-09-11 08:55:00
5:15 AM,69.8,66.2,88,30.03,3.0,WSW,9.2,-,N/A,,Overcast,240,2013-09-11 09:15:00
5:35 AM,69.8,66.2,88,30.03,2.5,WSW,6.9,-,N/A,,Overcast,250,2013-09-11 09:35:00
5:55 AM,69.8,66.2,88,30.03,2.5,SW,6.9,-,N/A,,Overcast,230,2013-09-11 09:55:00
6:15 AM,69.8,66.2,88,30.03,2.5,SW,5.8,-,N/A,,Overcast,230,2013-09-11 10:15:00
6:35 AM,69.8,66.2,88,30.03,1.8,Calm,Calm,-,N/A,,Overcast,0,2013-09-11 10:35:00
6:55 AM,69.8,66.2,88,30.04,1.5,SSW,3.5,-,N/A,,Overcast,200,2013-09-11 10:55:00
7:15 AM,69.8,66.2,88,30.04,1.2,Calm,Calm,-,N/A,,Overcast,0,2013-09-11 11:15:00
7:35 AM,69.8,66.2,88,30.04,1.8,Calm,Calm,-,N/A,,Overcast,0,2013-09-11 11:35:00
7:55 AM,71.6,66.2,83,30.04,1.5,Calm,Calm,-,N/A,,Overcast,0,2013-09-11 11:55:00
8:15 AM,71.6,66.2,83,30.03,2.0,South,3.5,-,N/A,,Overcast,180,2013-09-11 12:15:00
8:35 AM,71.6,66.2,83,30.03,3.0,SSW,4.6,-,N/A,,Overcast,200,2013-09-11 12:35:00
8:55 AM,73.4,69.8,88,30.03,5.0,SW,4.6,-,N/A,,Mostly Cloudy,220,2013-09-11 12:55:00
9:15 AM,77.0,69.8,78,30.03,8.0,SW,6.9,-,N/A,,Partly Cloudy,220,2013-09-11 13:15:00
9:35 AM,78.8,69.8,74,30.03,9.0,WSW,10.4,-,N/A,,Clear,240,2013-09-11 13:35:00
9:55 AM,80.6,71.6,74,30.02,10.0,WSW,9.2,-,N/A,,Clear,250,2013-09-11 13:55:00
10:15 AM,82.4,71.6,70,30.02,10.0,SW,6.9,-,N/A,,Clear,230,2013-09-11 14:15:00
10:35 AM,84.2,71.6,66,30.02,10.0,SW,8.1,-,N/A,,Clear,220,2013-09-11 14:35:00
10:55 AM,84.2,71.6,66,30.02,10.0,WSW,9.2,-,N/A,,Clear,240,2013-09-11 14:55:00
11:15 AM,86.0,71.6,62,30.01,10.0,WSW,9.2,-,N/A,,Clear,250,2013-09-11 15:15:00
11:35 AM,87.8,73.4,62,30.00,10.0,WSW,6.9,-,N/A,,Clear,240,2013-09-11 15:35:00
11:55 AM,89.6,73.4,59,30.00,10.0,WSW,8.1,-,N/A,,Clear,250,2013-09-11 15:55:00
12:15 PM,91.4,73.4,55,29.99,10.0,SW,6.9,-,N/A,,Clear,230,2013-09-11 16:15:00
12:35 PM,91.4,71.6,52,29.99,10.0,WSW,11.5,-,N/A,,Clear,240,2013-09-11 16:35:00
12:55 PM,91.4,71.6,52,29.99,10.0,SW,10.4,-,N/A,,Clear,230,2013-09-11 16:55:00
1:15 PM,93.2,69.8,46,29.98,10.0,SW,8.1,16.1,N/A,,Clear,220,2013-09-11 17:15:00
1:35 PM,93.2,68.0,44,29.97,10.0,SW,10.4,16.1,N/A,,Clear,220,2013-09-11 17:35:00
1:55 PM,93.2,69.8,46,29.97,7.0,SW,13.8,19.6,N/A,,Clear,220,2013-09-11 17:55:00
2:15 PM,93.2,69.8,46,29.97,10.0,WSW,11.5,18.4,N/A,,Clear,240,2013-09-11 18:15:00
2:35 PM,93.2,69.8,46,29.96,10.0,SW,12.7,-,N/A,,Clear,220,2013-09-11 18:35:00
2:55 PM,93.2,71.6,49,29.96,10.0,SW,9.2,-,N/A,,Clear,220,2013-09-11 18:55:00
3:15 PM,93.2,71.6,49,29.95,10.0,SW,12.7,20.7,N/A,,Clear,230,2013-09-11 19:15:00
3:35 PM,91.4,71.6,52,29.95,10.0,WSW,15.0,19.6,N/A,,Clear,240,2013-09-11 19:35:00
3:55 PM,91.4,71.6,52,29.95,10.0,SW,11.5,-,N/A,,Clear,230,2013-09-11 19:55:00
4:15 PM,93.2,71.6,49,29.94,10.0,SW,12.7,-,N/A,,Clear,230,2013-09-11 20:15:00
4:35 PM,93.2,71.6,49,29.93,10.0,SW,8.1,-,N/A,,Clear,220,2013-09-11 20:35:00
4:55 PM,91.4,69.8,49,29.93,10.0,SW,10.4,-,N/A,,Clear,230,2013-09-11 20:55:00
5:15 PM,91.4,69.8,49,29.92,10.0,SW,10.4,-,N/A,,Clear,220,2013-09-11 21:15:00
5:35 PM,89.6,69.8,52,29.91,10.0,SSW,6.9,-,N/A,,Clear,210,2013-09-11 21:35:00
5:55 PM,89.6,69.8,52,29.91,7.0,SSW,6.9,-,N/A,,Clear,200,2013-09-11 21:55:00
6:15 PM,87.8,71.6,58,29.92,10.0,SSW,5.8,-,N/A,,Clear,210,2013-09-11 22:15:00
6:35 PM,86.0,71.6,62,29.92,10.0,SSW,4.6,-,N/A,,Clear,210,2013-09-11 22:35:00
6:55 PM,80.6,71.6,74,29.92,8.0,SSW,3.5,-,N/A,,Clear,200,2013-09-11 22:55:00
7:15 PM,82.4,71.6,70,29.93,10.0,SSW,6.9,-,N/A,,Clear,210,2013-09-11 23:15:00
7:35 PM,82.4,71.6,70,29.94,10.0,SSW,6.9,-,N/A,,Clear,210,2013-09-11 23:35:00
7:55 PM,82.4,71.6,70,29.94,10.0,SSW,5.8,-,N/A,,Clear,210,2013-09-11 23:55:00
8:15 PM,80.6,71.6,74,29.95,10.0,SW,4.6,-,N/A,,Clear,220,2013-09-12 00:15:00
8:35 PM,80.6,71.6,74,29.95,10.0,SW,6.9,-,N/A,,Clear,230,2013-09-12 00:35:00
8:55 PM,82.4,69.8,66,29.93,10.0,SSW,6.9,-,N/A,,Clear,200,2013-09-12 00:55:00
9:15 PM,82.4,69.8,66,29.92,10.0,SSW,5.8,-,N/A,,Clear,210,2013-09-12 01:15:00
9:35 PM,80.6,69.8,70,29.93,10.0,SSW,5.8,-,N/A,,Clear,210,2013-09-12 01:35:00
9:55 PM,80.6,69.8,70,29.94,10.0,South,4.6,-,N/A,,Clear,190,2013-09-12 01:55:00
10:15 PM,-9999,-9999,N/A,29.99,-9999.0,North,-9999.0,-,N/A,Thunderstorm,Unknown,0,2013-09-12 02:15:00
10:35 PM,71.6,64.4,78,30.00,8.0,WNW,13.8,24.2,0.03,Thunderstorm,Thunderstorm,300,2013-09-12 02:35:00
10:55 PM,69.8,64.4,83,29.99,10.0,WNW,4.6,-,0.10,Thunderstorm,Thunderstorm,290,2013-09-12 02:55:00
11:15 PM,69.8,64.4,83,30.01,10.0,SSE,5.8,-,N/A,,Mostly Cloudy,160,2013-09-12 03:15:00
11:55 PM,69.8,64.4,83,29.95,10.0,West,11.5,-,0.02,,Mostly Cloudy,280,2013-09-12 03:55:00